, AK

(GMT )
McGrath

Weather History for PAMC - November, 2012

Change the Weather History Date:

Monday, November 26, 2012

  Actual Average Record
Temperature  
Mean Temperature -19 °F -  
Max Temperature -13 °F - 42 °F (1958)
Min Temperature -25 °F -7 °F -43 °F (1974)
Degree Days  
Heating Degree Days 84 64  
Month to date heating degree days 1648 1526  
Since 1 July heating degree days 4052 3874  
Cooling Degree Days 0    
Month to date cooling degree days 0  
Year to date cooling degree days 4 16  
Moisture  
Dew Point -28 °F    
Average Humidity 0    
Maximum Humidity 0    
Minimum Humidity 0    
Precipitation  
Precipitation 0.00 in 0.04 in 0.57 in (1981)
Month to date precipitation 0.95 1.24  
Year to date precipitation 21.45 16.54  
Snow  
Snow 0.00 in 0.70 in 5.20 in (1981)
Month to date snowfall 10.4 16.8  
Since 1 July snowfall 12.7 28.5  
Since 1 September snowfall 12.7 28.5  
Snow Depth 9.00 in    
Sea Level Pressure  
Sea Level Pressure 30.38 in    
Wind  
Wind Speed 0 mph (North)    
Max Wind Speed 3 mph    
Max Gust Speed 3 mph    
Visibility 10 miles    
Events      
T = Trace of Precipitation, MM = Missing Value Source: NWS Daily Summary

Daily Weather History Graph

Daily Weather History Graph

Search for Another Location

Airport or City:

Trip Planner

Search our weather history database for the weather conditions in past years. The results will help you decide how hot, cold, wet, or windy it might be!

Date:

Astronomy

Nov. 26, 2012 Rise Set
Actual Time 10:14 AM AKST 4:04 PM AKST
Civil Twilight 9:12 AM AKST 5:06 PM AKST
Nautical Twilight 8:11 AM AKST 6:07 PM AKST
Astronomical Twilight 7:16 AM AKST 7:03 PM AKST
Moon 3:22 PM AKST 8:12 AM AKST
Length of Visible Light 7h 54m
Length of Day
5h 49m
Waxing Gibbous, 97% of the Moon is Illuminated
Nov 26
Waxing Gibbous
Nov 28
Full
Dec 6
Last Quarter
Dec 12
New
Dec 19
First Quarter

Hourly Weather History & Observations

Time (AKST) Temp. Dew Point Humidity Pressure Visibility Wind Dir Wind Speed Gust Speed Precip Events Conditions
12:53 AM -23.1 °F -29.9 °F 70% 30.43 in 10.0 mi Calm Calm - N/A   Clear
1:53 AM -24.0 °F -29.9 °F 74% 30.43 in 10.0 mi Calm Calm - N/A   Clear
3:53 AM -24.0 °F -29.9 °F 74% 30.43 in 10.0 mi Calm Calm - N/A   Clear
4:53 AM -24.0 °F -31.0 °F 70% 30.43 in 10.0 mi Calm Calm - N/A   Clear
5:53 AM -25.1 °F -31.0 °F 74% 30.42 in 10.0 mi Calm Calm - N/A   Clear
6:53 AM -24.0 °F -31.0 °F 70% 30.42 in 9.0 mi Calm Calm - N/A   Clear
7:53 AM -24.0 °F -31.0 °F 70% 30.42 in 10.0 mi Calm Calm - N/A   Clear
8:53 AM -24.0 °F -31.0 °F 70% 30.42 in 10.0 mi Calm Calm - N/A   Clear
9:53 AM -25.1 °F -31.0 °F 74% 30.42 in 10.0 mi Calm Calm - N/A   Clear
10:53 AM -24.0 °F -29.9 °F 74% 30.42 in 10.0 mi Calm Calm - N/A   Clear
11:53 AM -20.9 °F -27.9 °F 70% 30.42 in 10.0 mi Calm Calm - N/A   Clear
12:53 PM -18.0 °F -23.1 °F 78% 30.40 in 10.0 mi Calm Calm - N/A   Clear
1:53 PM -15.0 °F -22.0 °F 71% 30.40 in 10.0 mi Calm Calm - N/A   Clear
2:53 PM -14.1 °F -20.9 °F 71% 30.38 in 10.0 mi Calm Calm - N/A   Clear
3:53 PM -15.0 °F -22.0 °F 71% 30.36 in 10.0 mi Calm Calm - N/A   Clear
4:53 PM -18.9 °F -25.1 °F 74% 30.35 in 10.0 mi Calm Calm - N/A   Clear
5:53 PM -18.9 °F -26.0 °F 70% 30.34 in 10.0 mi Calm Calm - N/A   Clear
6:53 PM -22.0 °F -27.9 °F 74% 30.33 in 10.0 mi Calm Calm - N/A   Clear
7:53 PM -22.0 °F -29.0 °F 70% 30.30 in 10.0 mi Calm Calm - N/A   Clear
8:53 PM -22.0 °F -29.0 °F 70% 30.28 in 10.0 mi Calm Calm - N/A   Clear
9:53 PM -23.1 °F -29.9 °F 70% 30.27 in 10.0 mi Calm Calm - N/A   Clear
10:53 PM -24.0 °F -29.9 °F 74% 30.25 in 10.0 mi Calm Calm - N/A   Clear
11:53 PM -24.0 °F -31.0 °F 70% 30.26 in 10.0 mi Calm Calm - N/A   Clear